Change the Weather History Date:

Monday, February 11, 2013

  Actual Average Record
Temperature  
Mean Temperature 34 °F -  
Max Temperature 39 °F 28 °F 55 °F (1999)
Min Temperature 28 °F 12 °F -9 °F (2014)
Degree Days  
Heating Degree Days 32    
Moisture  
Dew Point 27 °F    
Average Humidity 76    
Maximum Humidity 100    
Minimum Humidity 64    
Precipitation  
Precipitation 0.12 in - - ()
Sea Level Pressure  
Sea Level Pressure 29.56 in    
Wind  
Wind Speed 16 mph (WSW)    
Max Wind Speed 26 mph    
Max Gust Speed 36 mph    
Visibility 9 miles    
Events      
Averages and records for this station are not official NWS values.
T = Trace of Precipitation, MM = Missing Value Source: NWS Daily Summary

Daily Weather History Graph

Daily Weather History Graph

Search for Another Location

Airport or City:

Trip Planner

Search our weather history database for the weather conditions in past years. The results will help you decide how hot, cold, wet, or windy it might be!

Date:

Astronomy

Feb. 11, 2013 Rise Set
Actual Time 6:55 AM CST 5:15 PM CST
Civil Twilight 6:25 AM CST 5:45 PM CST
Nautical Twilight 5:51 AM CST 6:19 PM CST
Astronomical Twilight 5:17 AM CST 6:52 PM CST
Moon 7:14 AM CST (2/11) 7:17 PM CST (2/11)
Length of Visible Light 11h 19m
Length of Day
10h 19m
Waxing Crescent, 3% of the Moon is Illuminated
Feb 11
Waxing Crescent
Feb 17
First Quarter
Feb 25
Full
Mar 4
Last Quarter
Mar 11
New

Hourly Weather History & Observations

Time (CST) Temp. Windchill Dew Point Humidity Pressure Visibility Wind Dir Wind Speed Gust Speed Precip Events Conditions
12:15 AM 37.4 °F 30.3 °F 35.6 °F 93% 29.37 in 0.8 mi South 10.4 mph - N/A   Overcast
12:35 AM 37.4 °F 31.4 °F 37.4 °F 100% 29.37 in 7.0 mi South 8.1 mph - N/A   Overcast
12:55 AM 37.4 °F 31.4 °F 35.6 °F 93% 29.36 in 4.0 mi South 8.1 mph - N/A   Overcast
1:15 AM 39.2 °F 32.0 °F 35.6 °F 87% 29.36 in 10.0 mi SSW 11.5 mph 20.7 mph N/A   Overcast
1:35 AM 39.2 °F 32.5 °F 33.8 °F 81% 29.36 in 10.0 mi SSW 10.4 mph 17.3 mph N/A   Overcast
1:55 AM 39.2 °F 29.8 °F 32.0 °F 75% 29.36 in 10.0 mi SSW 18.4 mph 26.5 mph N/A   Overcast
2:15 AM 39.2 °F 29.8 °F 30.2 °F 70% 29.36 in 10.0 mi SSW 18.4 mph 31.1 mph N/A   Overcast
2:35 AM 37.4 °F 27.8 °F 30.2 °F 75% 29.36 in 10.0 mi SSW 17.3 mph 21.9 mph N/A   Mostly Cloudy
3:15 AM 37.4 °F 27.8 °F 30.2 °F 75% 29.35 in 10.0 mi SSW 17.3 mph 26.5 mph N/A   Overcast
3:35 AM 37.4 °F 27.8 °F 30.2 °F 75% 29.35 in 10.0 mi SSW 17.3 mph 23.0 mph N/A   Overcast
3:55 AM 35.6 °F 26.2 °F 30.2 °F 81% 29.35 in 10.0 mi SSW 15.0 mph 20.7 mph N/A   Overcast
4:15 AM 35.6 °F 25.2 °F 30.2 °F 81% 29.35 in 10.0 mi SSW 18.4 mph 25.3 mph N/A   Overcast
4:35 AM 35.6 °F 24.8 °F 28.4 °F 75% 29.36 in 10.0 mi SW 19.6 mph 28.8 mph N/A   Overcast
4:55 AM 35.6 °F 24.0 °F 28.4 °F 75% 29.37 in 10.0 mi SSW 23.0 mph 33.4 mph N/A   Overcast
5:15 AM 33.8 °F 23.2 °F 28.4 °F 81% 29.37 in 10.0 mi SSW 17.3 mph 28.8 mph N/A   Overcast
5:55 AM 35.6 °F 25.9 °F 26.6 °F 70% 29.36 in 10.0 mi SW 16.1 mph - N/A   Overcast
6:15 AM 33.8 °F 23.5 °F 26.6 °F 75% 29.37 in 10.0 mi SSW 16.1 mph 28.8 mph N/A   Overcast
6:35 AM 33.8 °F 21.9 °F 26.6 °F 75% 29.37 in 10.0 mi SW 21.9 mph 28.8 mph N/A   Overcast
6:55 AM 33.8 °F 21.6 °F 26.6 °F 75% 29.38 in 10.0 mi SW 23.0 mph 28.8 mph N/A   Overcast
7:15 AM 33.8 °F 22.8 °F 28.4 °F 81% 29.38 in 9.0 mi SW 18.4 mph 26.5 mph N/A   Overcast
7:35 AM 33.8 °F 23.2 °F 26.6 °F 75% 29.38 in 9.0 mi SW 17.3 mph 21.9 mph N/A   Overcast
7:55 AM 33.8 °F 23.5 °F 28.4 °F 81% 29.39 in 3.0 mi SW 16.1 mph 21.9 mph N/A   Overcast
8:15 AM 33.8 °F 23.2 °F 28.4 °F 81% 29.39 in 4.0 mi SW 17.3 mph 23.0 mph N/A   Overcast
8:35 AM 33.8 °F 23.9 °F 28.4 °F 81% 29.40 in 3.0 mi SW 15.0 mph 29.9 mph N/A   Overcast
8:55 AM 33.8 °F 23.2 °F 28.4 °F 81% 29.40 in 1.8 mi SW 17.3 mph 29.9 mph N/A   Overcast
9:15 AM 33.8 °F 22.5 °F 28.4 °F 81% 29.40 in 5.0 mi SW 19.6 mph 28.8 mph N/A   Overcast
9:35 AM 33.8 °F 22.5 °F 28.4 °F 81% 29.41 in 2.5 mi WSW 19.6 mph 28.8 mph N/A   Overcast
9:55 AM 33.8 °F 22.5 °F 30.2 °F 87% 29.42 in 4.0 mi WSW 19.6 mph 31.1 mph N/A   Overcast
10:15 AM 35.6 °F 24.2 °F 30.2 °F 81% 29.43 in 8.0 mi WSW 21.9 mph 28.8 mph N/A   Overcast
10:35 AM 35.6 °F 24.2 °F 30.2 °F 81% 29.44 in 10.0 mi WSW 21.9 mph 28.8 mph N/A   Overcast
10:55 AM 35.6 °F 24.8 °F 30.2 °F 81% 29.45 in 10.0 mi West 19.6 mph 27.6 mph N/A   Overcast
11:15 AM 35.6 °F 24.8 °F 30.2 °F 81% 29.47 in 10.0 mi West 19.6 mph 26.5 mph N/A   Overcast
11:35 AM 35.6 °F 24.2 °F 30.2 °F 81% 29.47 in 10.0 mi WSW 21.9 mph 27.6 mph N/A   Overcast
11:55 AM 35.6 °F 24.8 °F 30.2 °F 81% 29.48 in 10.0 mi West 19.6 mph 28.8 mph N/A   Overcast
12:15 PM 35.6 °F 24.5 °F 28.4 °F 75% 29.49 in 10.0 mi WSW 20.7 mph 29.9 mph N/A   Overcast
12:35 PM 35.6 °F 25.2 °F 28.4 °F 75% 29.51 in 10.0 mi West 18.4 mph 31.1 mph N/A   Overcast
12:55 PM 35.6 °F 23.2 °F 28.4 °F 75% 29.52 in 10.0 mi West 26.5 mph 33.4 mph N/A   Overcast
1:15 PM 35.6 °F 23.7 °F 28.4 °F 75% 29.54 in 10.0 mi West 24.2 mph 32.2 mph N/A   Overcast
1:35 PM 33.8 °F 21.9 °F 28.4 °F 81% 29.56 in 10.0 mi West 21.9 mph 29.9 mph N/A   Overcast
1:55 PM 33.8 °F 21.0 °F 28.4 °F 81% 29.56 in 10.0 mi West 25.3 mph 33.4 mph N/A   Overcast
2:15 PM 33.8 °F 22.8 °F 28.4 °F 81% 29.59 in 10.0 mi West 18.4 mph 27.6 mph N/A   Overcast
2:35 PM 33.8 °F 22.2 °F 26.6 °F 75% 29.61 in 10.0 mi West 20.7 mph 28.8 mph N/A   Overcast
2:55 PM 33.8 °F 22.5 °F 26.6 °F 75% 29.62 in 10.0 mi West 19.6 mph 28.8 mph N/A   Overcast
3:15 PM 33.8 °F 21.3 °F 26.6 °F 75% 29.64 in 10.0 mi West 24.2 mph 33.4 mph N/A   Overcast
3:35 PM 33.8 °F 21.9 °F 24.8 °F 70% 29.66 in 10.0 mi West 21.9 mph 28.8 mph N/A   Overcast
3:55 PM 32.0 °F 20.5 °F 24.8 °F 75% 29.67 in 10.0 mi West 18.4 mph 27.6 mph N/A   Overcast
4:55 PM 30.2 °F 17.4 °F 26.6 °F 86% 29.72 in 10.0 mi West 20.7 mph 35.7 mph N/A   Overcast
5:15 PM 30.2 °F 18.5 °F 24.8 °F 80% 29.73 in 10.0 mi West 17.3 mph 26.5 mph N/A   Overcast
5:35 PM 30.2 °F 18.5 °F 24.8 °F 80% 29.74 in 10.0 mi West 17.3 mph 21.9 mph N/A   Overcast
5:55 PM 30.2 °F 16.8 °F 23.0 °F 75% 29.76 in 10.0 mi West 23.0 mph 28.8 mph N/A   Overcast
6:15 PM 30.2 °F 17.1 °F 21.2 °F 69% 29.77 in 10.0 mi West 21.9 mph 28.8 mph N/A   Overcast
6:35 PM 30.2 °F 18.1 °F 21.2 °F 69% 29.79 in 10.0 mi West 18.4 mph 29.9 mph N/A   Overcast
6:55 PM 30.2 °F 17.8 °F 19.4 °F 64% 29.80 in 10.0 mi West 19.6 mph 31.1 mph N/A   Overcast
7:15 PM 30.2 °F 18.9 °F 19.4 °F 64% 29.81 in 10.0 mi West 16.1 mph 28.8 mph N/A   Overcast
7:35 PM 30.2 °F 16.8 °F 21.2 °F 69% 29.82 in 10.0 mi West 23.0 mph 28.8 mph N/A   Overcast
7:55 PM 30.2 °F 17.4 °F 21.2 °F 69% 29.83 in 10.0 mi West 20.7 mph 27.6 mph N/A   Overcast
8:15 PM 28.4 °F 17.0 °F 19.4 °F 69% 29.84 in 10.0 mi West 15.0 mph 23.0 mph N/A   Overcast
8:35 PM 28.4 °F 17.5 °F 19.4 °F 69% 29.84 in 10.0 mi West 13.8 mph 23.0 mph N/A   Overcast
8:55 PM 28.4 °F 17.0 °F 19.4 °F 69% 29.85 in 10.0 mi West 15.0 mph 20.7 mph N/A   Overcast
9:15 PM 28.4 °F 18.0 °F 19.4 °F 69% 29.86 in 10.0 mi West 12.7 mph - N/A   Overcast
9:35 PM 28.4 °F 16.6 °F 19.4 °F 69% 29.87 in 10.0 mi West 16.1 mph 20.7 mph N/A   Overcast
9:55 PM 28.4 °F 18.5 °F 19.4 °F 69% 29.87 in 10.0 mi West 11.5 mph 17.3 mph N/A   Overcast
10:15 PM 28.4 °F 17.0 °F 19.4 °F 69% 29.87 in 10.0 mi West 15.0 mph 20.7 mph N/A   Overcast
10:35 PM 28.4 °F 17.0 °F 19.4 °F 69% 29.88 in 10.0 mi West 15.0 mph 21.9 mph N/A   Overcast
10:55 PM 28.4 °F 15.8 °F 19.4 °F 69% 29.88 in 10.0 mi West 18.4 mph 23.0 mph N/A   Overcast
11:15 PM 28.4 °F 18.0 °F 19.4 °F 69% 29.89 in 10.0 mi West 12.7 mph - N/A   Overcast
11:35 PM 28.4 °F 17.5 °F 19.4 °F 69% 29.90 in 10.0 mi West 13.8 mph 19.6 mph N/A   Overcast
11:55 PM 28.4 °F 15.4 °F 19.4 °F 69% 29.91 in 10.0 mi WNW 19.6 mph 25.3 mph N/A   Overcast